Regional Weather Roundup
Issued by NWS

Home | Current Version | Previous Version | Graphics & Text | Print | Product List | Glossary On
Versions: 1 2 3 4 5 6 7 8 9 10 11 12 13 14 15 16 17 18 19 20 21 22 23 24 25 26 27 28 29 30 31 32 33 34 35 36 37 38 39 40 41 42 43 44 45 46 47 48 49 50
000
ASUS43 KLOT 290109
RWRIL

ILLINOIS REGIONAL WEATHER ROUNDUP
NATIONAL WEATHER SERVICE CHICAGO/ROMEOVILLE IL
800 PM CDT FRI JUL 28 2017

NOTE: "FAIR" INDICATES FEW OR NO CLOUDS BELOW 12,000 FEET WITH NO
SIGNIFICANT WEATHER AND/OR OBSTRUCTIONS TO VISIBILITY.

* THESE STATIONS ARE NOT UNDER NWS QUALITY CONTROL. THEY ALSO MAY NOT
  REPORT WEATHER SUCH AS PRECIPITATION OR FOG.

ILZ001-002-007-009-015-016-024-290200-
NORTHWEST ILLINOIS

CITY           SKY/WX    TMP DP  RH WIND       PRES   REMARKS
MOLINE         CLEAR     76  55  48 NE8       30.01S
STERLING*      CLEAR     71  63  75 E6        30.02S
SAVANNA*       PTCLDY    74  60  62 N5        30.03S
$$

ILZ003-004-008-010-011-017-018-290200-
NORTH CENTRAL ILLINOIS

CITY           SKY/WX    TMP DP  RH WIND       PRES   REMARKS
ROCKFORD       PTCLDY    75  56  51 E8        30.04S
FREEPORT*      CLEAR     71  63  75 CALM      30.05S
ROCHELLE*      CLEAR     71  60  70 NE6       30.03S
DE KALB*       CLEAR     71  58  64 N9        30.03F
PERU*          CLEAR     71  59  66 NE7       30.01S
$$

ILZ005-006-012>014-019>023-290200-
NORTHEAST ILLINOIS

CITY           SKY/WX    TMP DP  RH WIND       PRES   REMARKS
CHICAGO-OHARE  PTCLDY    74  54  49 NE15      30.01S
CHICAGO-MIDWAY PTCLDY    74  57  55 N16       30.00S
AURORA         CLEAR     70  59  68 NE8       30.02R
LANSING*       CLEAR     71  59  64 N8        30.00S
JOLIET*        CLEAR     74  59  58 NE10      30.00S
WAUKEGAN       CLEAR     70  58  65 N9G18     30.02S
DUPAGE AIRPORT CLEAR     72  58  61 NE10      30.01S
KANKAKEE*      CLEAR    N/A N/A N/A NE9       30.00R
WHEELING       CLEAR     72  57  59 N9        30.03S
MORRIS*        CLEAR     72  59  63 CALM      29.99S
ROMEOVILLE*    CLEAR     72  55  55 NE15      30.01S
NORTHERLY ISL    N/A     71  59  65 N17         N/A
$$

LMZ740>746-290200-
SOUTHERN LAKE MICHIGAN

STATION/POSITION SKY/WX   TEMP    WIND        PRES    VSBY  WAVE
                          AIR SEA DIR/SP/G                  HT/PER
                          (F)     (DEG/KT/KT) (MB)    (MI)  (FT/S)
SOUTHERN BUOY              71 72   10/ 17/ 19 1015.8R         4/ 5
WILMETTE HARBOR            71 72   10/ 16/ 21   N/A           5/ 5
HARRISON CRIB              72      10/ 22/ 23   N/A
BURNHAM HARBOR             71                   N/A
CALUMET HARBOR             72     350/ 11/ 18 1015.7R
BURNS HARBOR               73      20/ 21/ 25 1015.6R
MICHIGAN CITY              72      10/ 23/ 25   N/A
MICHIGAN CITY 6N           73 73   20/ 17/ 23   N/A           7/ 6
ST. JOSEPH                 70 69   40/ 12/ 17 1015.5          6/ 5
$$

ILZ025>027-034>036-040-047-049-050-058-095>099-290200-
WEST-CENTRAL ILLINOIS

CITY           SKY/WX    TMP DP  RH WIND       PRES   REMARKS
QUINCY         CLEAR     75  61  61 N9        29.98S
GALESBURG*     CLEAR     70  59  67 N6        30.01S
MACOMB*        CLEAR     72  61  68 N7        30.02S
JACKSONVILLE*  CLEAR     75  64  67 CALM      29.96S
PITTSFIELD*    CLEAR     77  64  63 N6        29.99R
$$

ILZ028>032-037-038-041>044-048-051>054-059>061-290200-
CENTRAL ILLINOIS

CITY           SKY/WX    TMP DP  RH WIND       PRES   REMARKS
PONTIAC        CLEAR     71  64  79 NE7       29.99S
BLOOMINGTON    CLEAR     71  61  70 NE9       29.99R
DECATUR        CLEAR     74  61  63 N10       29.95R
PEORIA         CLEAR     76  60  57 NE6       29.98S
LACON*         CLEAR     73  60  64 NE5       29.98F
LINCOLN*       CLEAR     75  64  70 N7        29.97R
SPRINGFIELD    CLEAR     76  65  68 N9        29.96R
TAYLORVILLE    CLEAR     73  64  73 N7        29.95S
$$

ILZ033-039-045-046-055>057-062-063-290200-
EAST-CENTRAL ILLINOIS

CITY           SKY/WX    TMP DP  RH WIND       PRES   REMARKS
CHAMPAIGN      CLEAR     75  62  64 N15       29.95R
RANTOUL*       CLEAR     76  64  65 N13       29.96R
MATTOON        CLEAR     74  66  76 N13       29.92R
PARIS*         PTCLDY    73  65  76 N8        29.93R
$$

ILZ079-100>102-290200-
SOUTHWEST ILLINOIS

CITY           SKY/WX    TMP DP  RH WIND       PRES   REMARKS
ALTON          PTCLDY    77  68  73 N6        29.94R
BELLEVILLE     CLEAR     79  65  63 N8        29.93R HX  81
CAHOKIA*       MOCLDY    81  64  56 N7        29.92R HX  82
SPARTA*        PTCLDY    79  67  68 N7        29.92R HX  81
$$

ILZ064>066-069>071-074>076-080>082-084>086-088>090-092>094-290200-
SOUTH-CENTRAL ILLINOIS

CITY           SKY/WX    TMP DP  RH WIND       PRES   REMARKS
CARBONDALE     PTCLDY    80  71  74 N6        29.89R HX  84
CAIRO*         CLEAR     80  69  69 N8        29.86R HX  83
EFFINGHAM*     CLEAR     76  64  65 N6        29.93S
MARION         PTCLDY    77  77 100 NE3       29.89R
MT. VERNON     CLEAR     77  65  66 N7        29.91R
CENTRALIA*     CLEAR     78  68  71 N7        29.91R HX  80
SALEM*         CLEAR     77  66  69 N5        29.92R
METROPOLIS*    CLEAR     81  72  74 N6        29.87R HX  85
$$

ILZ067-068-072-073-078-083-087-091-290200-
SOUTHEAST ILLINOIS

CITY           SKY/WX    TMP DP  RH WIND       PRES   REMARKS
LAWRENCEVILLE  CLEAR     76  64  66 N8        29.89R
FLORA*         CLEAR     78  64  62 N6        29.91R HX  80
FAIRFIELD*     CLEAR     76  64  66 CALM      29.89R
HARRISBURG*    PTCLDY    79  70  75 N3        29.88R HX  81
ROBINSON*      CLEAR     72  66  83 N3        29.90S
CARMI*         CLEAR     77  69  75 N12       29.87R
$$

ABBREVIATIONS USED IN REMARKS
   TC - TEMPERATURE IN CELSIUS
  WCI - WIND CHILL INDEX
   HX - HEAT INDEX
  VSB - VISIBILITY
$$





USA.gov is the U.S. government's official web portal to all federal, state and local government web resources and services.